AirNav   Air Wisconsin Up To $57,000 Bonus
 
 1681 users online  

8NJ7 Pio Costa Heliport
Pequannock, New Jersey, USA

GOING TO PEQUANNOCK?


FAA INFORMATION EFFECTIVE 07 NOVEMBER 2019

Location

FAA Identifier: 8NJ7
Lat/Long: 40-56-35.3400N 074-17-26.5700W
40-56.589000N 074-17.442833W
40.9431500,-74.2907139
(estimated)
Elevation: 200 ft. / 61 m (estimated)
Variation: 13W (1995)
From city: 3 miles S of PEQUANNOCK, NJ
Time zone: UTC -5 (UTC -4 during Daylight Saving Time)
Zip code: 07440

Heliport Operations

Heliport use: Private use. Permission required prior to landing
Activation date: 08/1997
Control tower: no
ARTCC: NEW YORK CENTER
FSS: MILLVILLE FLIGHT SERVICE STATION
Attendance: UNATNDD
Wind indicator: yes
Segmented circle: no

Heliport Communications

WX ASOS at CDW (4 nm S): 135.5 (973-575-4417)
WX AWOS-3 at MMU (10 nm SW): PHONE 973-290-0135
WX ASOS at TEB (12 nm SE): 132.025 (201-393-0855)
WX ASOS at EWR (16 nm S): PHONE 973-621-2892
WX AWOS-3PT at JRB (19 nm SE): 128.175 (212-425-1534)
WX AWOS-3 at LDJ (20 nm S): 124.025 (908-862-7383)

Nearby radio navigation aids

VOR radial/distance  VOR name  Freq  Var
TEBr310/11.8TETERBORO VOR/DME108.4011W
SAXr135/13.5SPARTA VORTAC115.7011W
LGAr309/21.4LA GUARDIA VOR/DME113.1012W
BWZr081/25.6BROADWAY VOR/DME114.2011W
STWr108/26.4STILLWATER VOR/DME109.6011W
CRIr329/26.8CANARSIE VOR/DME112.3011W
SBJr053/29.8SOLBERG VOR/DME112.9010W
JFKr320/30.1KENNEDY VOR/DME115.9012W
HUOr165/31.1HUGUENOT VOR/DME116.1011W
CMKr250/37.9CARMEL VOR/DME116.6012W
COLr002/38.4COLTS NECK VOR/DME115.4011W

 
NDB name  Hdg/Dist  Freq  Var  ID
TORBY331/11.021412WTE - .
CHATHAM040/13.725413WCAT -.-. .- -
STANWYCK210/36.826112WSKU ... -.- ..-

Heliport Services

Runway Information

Helipad H1

Dimensions: 20 x 20 ft. / 6 x 6 m
Surface: turf
Traffic pattern: leftleft

Heliport Ownership and Management from official FAA records

Ownership: Privately-owned
Owner: ANTHONY PIO COSTA
1 IRVING ST
PEQUANNOCK, NJ 07082
Phone 201-334-7675
Manager: JOANNE DE NICOLA
67 HOPE CROSSING RD
BELVIDERE, NJ 07823
Phone 908-475-8767

Additional Remarks

FOR CD CTC NEW YORK APCH AT 800-645-3206.

Instrument Procedures

There are no published instrument procedures at 8NJ7.

Some nearby airports with instrument procedures:

N07 - Lincoln Park Airport (1 nm W)
KCDW - Essex County Airport (4 nm S)
KMMU - Morristown Municipal Airport (10 nm SW)
4N1 - Greenwood Lake Airport (11 nm N)
KTEB - Teterboro Airport (12 nm SE)
KEWR - Newark Liberty International Airport (16 nm S)
KJRA - West 30th St Heliport (17 nm SE)
6N5 - East 34th Street Heliport (19 nm SE)
KJRB - Downtown Manhattan/Wall Street Heliport (19 nm SE)
KLDJ - Linden Airport (20 nm S)
 
Loc | Ops | Rwys | IFR | FBO | Links
Com | Nav | Svcs | Stats | Notes
Area around 8NJ7 (Pio Costa Heliport)
 
Road maps at: MapQuest Bing Google
 
Aerial photo
No photo
 
Sectional chart

 
Airport distance calculator
Flying to Pio Costa Heliport? Find the distance to fly.

From to 8NJ7

Sunrise and sunset
Times for 20-Nov-2019
 Local
(UTC-5)
 Zulu
(UTC)
Morning civil twilight06:2211:22
Sunrise06:5111:51
Sunset16:3421:34
Evening civil twilight17:0422:04

Current date and time
Zulu (UTC)  20-Nov-2019 17:15:00
Local (UTC-5)  20-Nov-2019 12:15:00
 
METAR
KCDW 
4nm S 
201653Z VRB06KT 10SM BKN045 OVC060 08/M03 A2996 RMK AO2 SLP152 T00781028
KMMU 
11nm SW 
201645Z 36008KT 10SM SCT041 BKN250 07/M02 A2997
KTEB 
12nm SE 
201651Z 34010G18KT 10SM OVC036 07/M02 A2995 RMK AO2 SLP141 T00671017
KEWR 
17nm S 
201651Z 33012KT 10SM BKN037 BKN055 BKN250 07/M02 A2995 RMK AO2 SLP142 T00721022 $
KNYC 
18nm SE 
201651Z AUTO VRB05KT 10SM OVC030 07/M02 A2997 RMK AO2 SLP142 T00671022 $
KJRB 
19nm SE 
201656Z AUTO VRB03KT OVC033 08/M01 A2996 RMK AO2 SLP144 T00831006 PWINO
KLDJ 
20nm S 
201655Z AUTO 01011G15KT 10SM OVC037 08/M02 A2996 RMK AO2 T00761024
TAF
KTEB 
12nm SE 
201508Z 2015/2118 34010KT P6SM FEW025 BKN035 TEMPO 2015/2017 BKN025 FM201800 33013G18KT P6SM BKN045 BKN070 FM210300 33007KT P6SM FEW100 FEW180 FM211500 30007KT P6SM FEW250
KEWR 
17nm S 
201337Z 2014/2118 33013KT P6SM SCT025 BKN060 OVC150 FM201500 33010G17KT P6SM BKN045 FM201800 33013G22KT P6SM BKN050 BKN070 FM202200 32010G21KT P6SM SCT070 FM210400 32010KT P6SM SCT070 FM211500 30007KT P6SM FEW250
NOTAMs
Click for the latest NOTAMs
NOTAMs are issued by the DoD/FAA and will open in a separate window not controlled by AirNav.

 

 
 

Would you like to see your business listed on this page?

 If your business provides an interesting product or service to pilots, flight crews, aircraft, or users of the Pio Costa Heliport, you should consider listing it here.  To start the listing process, click on the button below
 
Add a business
 

Other Pages about Pio Costa Heliport

Update a link
 
Copyright © AirNav, LLC. All rights reserved. Privacy Policy  Contact